﻿測定場所 (Monitoring sites),日付 (Measurement date),時間 (Measurement time),線量率 最大値 (max) μGy/h,線量率 最小値 (min) μGy/h,線量率 平均値 (average) μGy/h,
大田 (Ota),2012-12-02,23:01～24:00,0.0600,0.0524,0.0561,
大田 (Ota),2012-12-02,22:01～23:00,0.0619,0.0539,0.0580,
大田 (Ota),2012-12-02,21:01～22:00,0.0624,0.0543,0.0587,
大田 (Ota),2012-12-02,20:01～21:00,0.0614,0.0526,0.0573,
大田 (Ota),2012-12-02,19:01～20:00,0.0608,0.0510,0.0565,
大田 (Ota),2012-12-02,18:01～19:00,0.0557,0.0476,0.0517,
大田 (Ota),2012-12-02,17:01～18:00,0.0544,0.0480,0.0511,
大田 (Ota),2012-12-02,16:01～17:00,0.0562,0.0468,0.0510,
大田 (Ota),2012-12-02,15:01～16:00,0.0540,0.0476,0.0506,
大田 (Ota),2012-12-02,14:01～15:00,0.0538,0.0473,0.0506,
大田 (Ota),2012-12-02,13:01～14:00,0.0545,0.0472,0.0507,
大田 (Ota),2012-12-02,12:01～13:00,0.0542,0.0473,0.0506,
大田 (Ota),2012-12-02,11:01～12:00,0.0542,0.0476,0.0504,
大田 (Ota),2012-12-02,10:01～11:00,0.0552,0.0483,0.0509,
大田 (Ota),2012-12-02,09:01～10:00,0.0549,0.0474,0.0511,
大田 (Ota),2012-12-02,08:01～09:00,0.0542,0.0482,0.0508,
大田 (Ota),2012-12-02,07:01～08:00,0.0534,0.0478,0.0506,
大田 (Ota),2012-12-02,06:01～07:00,0.0546,0.0474,0.0503,
大田 (Ota),2012-12-02,05:01～06:00,0.0532,0.0468,0.0505,
大田 (Ota),2012-12-02,04:01～05:00,0.0549,0.0472,0.0504,
大田 (Ota),2012-12-02,03:01～04:00,0.0533,0.0478,0.0507,
大田 (Ota),2012-12-02,02:01～03:00,0.0534,0.0469,0.0507,
大田 (Ota),2012-12-02,01:01～02:00,0.0541,0.0480,0.0511,
大田 (Ota),2012-12-02,00:01～01:00,0.0552,0.0481,0.0514,
大田 (Ota),2012-12-01,23:01～24:00,0.0544,0.0475,0.0515,
大田 (Ota),2012-12-01,22:01～23:00,0.0544,0.0476,0.0516,
大田 (Ota),2012-12-01,21:01～22:00,0.0553,0.0465,0.0514,
大田 (Ota),2012-12-01,20:01～21:00,0.0554,0.0474,0.0516,
大田 (Ota),2012-12-01,19:01～20:00,0.0550,0.0477,0.0516,
大田 (Ota),2012-12-01,18:01～19:00,0.0550,0.0484,0.0511,
大田 (Ota),2012-12-01,17:01～18:00,0.0544,0.0480,0.0514,
大田 (Ota),2012-12-01,16:01～17:00,0.0549,0.0456,0.0509,
大田 (Ota),2012-12-01,15:01～16:00,0.0559,0.0484,0.0514,
大田 (Ota),2012-12-01,14:01～15:00,0.0558,0.0487,0.0520,
大田 (Ota),2012-12-01,13:01～14:00,0.0570,0.0501,0.0530,
大田 (Ota),2012-12-01,12:01～13:00,0.0570,0.0480,0.0518,
大田 (Ota),2012-12-01,11:01～12:00,0.0554,0.0488,0.0516,
大田 (Ota),2012-12-01,10:01～11:00,0.0561,0.0488,0.0523,
大田 (Ota),2012-12-01,09:01～10:00,0.0567,0.0494,0.0521,
大田 (Ota),2012-12-01,08:01～09:00,0.0554,0.0487,0.0517,
大田 (Ota),2012-12-01,07:01～08:00,0.0545,0.0483,0.0517,
大田 (Ota),2012-12-01,06:01～07:00,0.0553,0.0485,0.0518,
大田 (Ota),2012-12-01,05:01～06:00,0.0545,0.0488,0.0522,
大田 (Ota),2012-12-01,04:01～05:00,0.0550,0.0479,0.0520,
大田 (Ota),2012-12-01,03:01～04:00,0.0552,0.0488,0.0516,
大田 (Ota),2012-12-01,02:01～03:00,0.0553,0.0486,0.0517,
大田 (Ota),2012-12-01,01:01～02:00,0.0558,0.0490,0.0520,
大田 (Ota),2012-12-01,00:01～01:00,0.0556,0.0478,0.0522,
大田 (Ota),2012-11-30,23:01～24:00,0.0557,0.0483,0.0518,
大田 (Ota),2012-11-30,22:01～23:00,0.0558,0.0480,0.0517,
大田 (Ota),2012-11-30,21:01～22:00,0.0566,0.0481,0.0520,
大田 (Ota),2012-11-30,20:01～21:00,0.0567,0.0491,0.0517,
大田 (Ota),2012-11-30,19:01～20:00,0.0572,0.0482,0.0521,
大田 (Ota),2012-11-30,18:01～19:00,0.0570,0.0485,0.0519,
大田 (Ota),2012-11-30,17:01～18:00,0.0559,0.0475,0.0520,
大田 (Ota),2012-11-30,16:01～17:00,0.0570,0.0490,0.0519,
大田 (Ota),2012-11-30,15:01～16:00,0.0554,0.0485,0.0516,
大田 (Ota),2012-11-30,14:01～15:00,0.0555,0.0473,0.0517,
大田 (Ota),2012-11-30,13:01～14:00,0.0552,0.0475,0.0518,
大田 (Ota),2012-11-30,12:01～13:00,0.0556,0.0481,0.0517,
大田 (Ota),2012-11-30,11:01～12:00,0.0554,0.0498,0.0520,
大田 (Ota),2012-11-30,10:01～11:00,0.0565,0.0489,0.0520,
大田 (Ota),2012-11-30,09:01～10:00,0.0551,0.0485,0.0519,
大田 (Ota),2012-11-30,08:01～09:00,0.0557,0.0493,0.0522,
大田 (Ota),2012-11-30,07:01～08:00,0.0568,0.0482,0.0520,
大田 (Ota),2012-11-30,06:01～07:00,0.0545,0.0488,0.0515,
大田 (Ota),2012-11-30,05:01～06:00,0.0561,0.0483,0.0520,
大田 (Ota),2012-11-30,04:01～05:00,0.0561,0.0492,0.0521,
大田 (Ota),2012-11-30,03:01～04:00,0.0547,0.0486,0.0520,
大田 (Ota),2012-11-30,02:01～03:00,0.0546,0.0480,0.0520,
大田 (Ota),2012-11-30,01:01～02:00,0.0549,0.0494,0.0516,
大田 (Ota),2012-11-30,00:01～01:00,0.0548,0.0493,0.0519,
大田 (Ota),2012-11-29,23:01～24:00,0.0570,0.0491,0.0531,
大田 (Ota),2012-11-29,22:01～23:00,0.0612,0.0517,0.0559,
大田 (Ota),2012-11-29,21:01～22:00,0.0606,0.0529,0.0561,
大田 (Ota),2012-11-29,20:01～21:00,0.0592,0.0494,0.0540,
大田 (Ota),2012-11-29,19:01～20:00,0.0563,0.0479,0.0521,
大田 (Ota),2012-11-29,18:01～19:00,0.0564,0.0489,0.0526,
大田 (Ota),2012-11-29,17:01～18:00,0.0553,0.0492,0.0519,
大田 (Ota),2012-11-29,16:01～17:00,0.0557,0.0482,0.0513,
大田 (Ota),2012-11-29,15:01～16:00,0.0554,0.0484,0.0518,
大田 (Ota),2012-11-29,14:01～15:00,0.0543,0.0480,0.0513,
大田 (Ota),2012-11-29,13:01～14:00,0.0551,0.0472,0.0520,
大田 (Ota),2012-11-29,12:01～13:00,0.0552,0.0499,0.0526,
大田 (Ota),2012-11-29,11:01～12:00,0.0556,0.0485,0.0525,
大田 (Ota),2012-11-29,10:01～11:00,0.0563,0.0494,0.0526,
大田 (Ota),2012-11-29,09:01～10:00,0.0563,0.0496,0.0527,
大田 (Ota),2012-11-29,08:01～09:00,0.0559,0.0489,0.0521,
大田 (Ota),2012-11-29,07:01～08:00,0.0554,0.0487,0.0519,
大田 (Ota),2012-11-29,06:01～07:00,0.0549,0.0484,0.0519,
大田 (Ota),2012-11-29,05:01～06:00,0.0561,0.0479,0.0520,
大田 (Ota),2012-11-29,04:01～05:00,0.0556,0.0481,0.0520,
大田 (Ota),2012-11-29,03:01～04:00,0.0547,0.0484,0.0514,
大田 (Ota),2012-11-29,02:01～03:00,0.0553,0.0484,0.0512,
大田 (Ota),2012-11-29,01:01～02:00,0.0543,0.0475,0.0509,
大田 (Ota),2012-11-29,00:01～01:00,0.0549,0.0475,0.0514,
大田 (Ota),2012-11-28,23:01～24:00,0.0537,0.0474,0.0509,
大田 (Ota),2012-11-28,22:01～23:00,0.0549,0.0470,0.0511,
大田 (Ota),2012-11-28,21:01～22:00,0.0542,0.0476,0.0508,
大田 (Ota),2012-11-28,20:01～21:00,0.0545,0.0482,0.0511,
大田 (Ota),2012-11-28,19:01～20:00,0.0541,0.0491,0.0513,
大田 (Ota),2012-11-28,18:01～19:00,0.0543,0.0494,0.0514,
大田 (Ota),2012-11-28,17:01～18:00,0.0554,0.0485,0.0519,
大田 (Ota),2012-11-28,16:01～17:00,0.0571,0.0510,0.0538,
大田 (Ota),2012-11-28,15:01～16:00,0.0674,0.0539,0.0608,
大田 (Ota),2012-11-28,14:01～15:00,0.0678,0.0489,0.0608,
大田 (Ota),2012-11-28,13:01～14:00,0.0600,0.0489,0.0536,
大田 (Ota),2012-11-28,12:01～13:00,0.0548,0.0487,0.0514,
大田 (Ota),2012-11-28,11:01～12:00,0.0539,0.0471,0.0513,
大田 (Ota),2012-11-28,10:01～11:00,0.0555,0.0474,0.0515,
大田 (Ota),2012-11-28,09:01～10:00,0.0550,0.0474,0.0516,
大田 (Ota),2012-11-28,08:01～09:00,0.0544,0.0482,0.0510,
大田 (Ota),2012-11-28,07:01～08:00,0.0540,0.0485,0.0514,
大田 (Ota),2012-11-28,06:01～07:00,0.0551,0.0473,0.0513,
大田 (Ota),2012-11-28,05:01～06:00,0.0537,0.0477,0.0511,
大田 (Ota),2012-11-28,04:01～05:00,0.0553,0.0480,0.0513,
大田 (Ota),2012-11-28,03:01～04:00,0.0545,0.0483,0.0513,
大田 (Ota),2012-11-28,02:01～03:00,0.0553,0.0472,0.0514,
大田 (Ota),2012-11-28,01:01～02:00,0.0543,0.0481,0.0514,
大田 (Ota),2012-11-28,00:01～01:00,0.0565,0.0465,0.0514,
大田 (Ota),2012-11-27,23:01～24:00,0.0544,0.0479,0.0515,
大田 (Ota),2012-11-27,22:01～23:00,0.0543,0.0490,0.0514,
大田 (Ota),2012-11-27,21:01～22:00,0.0550,0.0474,0.0515,
大田 (Ota),2012-11-27,20:01～21:00,0.0552,0.0471,0.0516,
大田 (Ota),2012-11-27,19:01～20:00,0.0557,0.0484,0.0517,
大田 (Ota),2012-11-27,18:01～19:00,0.0557,0.0477,0.0517,
大田 (Ota),2012-11-27,17:01～18:00,0.0555,0.0479,0.0520,
大田 (Ota),2012-11-27,16:01～17:00,0.0550,0.0473,0.0516,
大田 (Ota),2012-11-27,15:01～16:00,0.0551,0.0487,0.0522,
大田 (Ota),2012-11-27,14:01～15:00,0.0557,0.0482,0.0517,
大田 (Ota),2012-11-27,13:01～14:00,0.0554,0.0485,0.0521,
大田 (Ota),2012-11-27,12:01～13:00,0.0569,0.0488,0.0523,
大田 (Ota),2012-11-27,11:01～12:00,0.0560,0.0502,0.0524,
大田 (Ota),2012-11-27,10:01～11:00,0.0565,0.0482,0.0519,
大田 (Ota),2012-11-27,09:01～10:00,0.0550,0.0486,0.0519,
大田 (Ota),2012-11-27,08:01～09:00,0.0546,0.0477,0.0518,
大田 (Ota),2012-11-27,07:01～08:00,0.0554,0.0471,0.0518,
大田 (Ota),2012-11-27,06:01～07:00,0.0556,0.0487,0.0517,
大田 (Ota),2012-11-27,05:01～06:00,0.0548,0.0483,0.0510,
大田 (Ota),2012-11-27,04:01～05:00,0.0545,0.0457,0.0514,
大田 (Ota),2012-11-27,03:01～04:00,0.0542,0.0481,0.0513,
大田 (Ota),2012-11-27,02:01～03:00,0.0548,0.0471,0.0513,
大田 (Ota),2012-11-27,01:01～02:00,0.0549,0.0479,0.0515,
大田 (Ota),2012-11-27,00:01～01:00,0.0555,0.0490,0.0517,
大田 (Ota),2012-11-26,23:01～24:00,0.0551,0.0484,0.0516,
大田 (Ota),2012-11-26,22:01～23:00,0.0552,0.0492,0.0518,
大田 (Ota),2012-11-26,21:01～22:00,0.0554,0.0479,0.0516,
大田 (Ota),2012-11-26,20:01～21:00,0.0544,0.0484,0.0516,
大田 (Ota),2012-11-26,19:01～20:00,0.0591,0.0496,0.0548,
大田 (Ota),2012-11-26,18:01～19:00,0.0734,0.0568,0.0631,
大田 (Ota),2012-11-26,17:01～18:00,0.0851,0.0683,0.0749,
大田 (Ota),2012-11-26,16:01～17:00,0.0805,0.0701,0.0735,
大田 (Ota),2012-11-26,15:01～16:00,0.0821,0.0683,0.0726,
大田 (Ota),2012-11-26,14:01～15:00,0.0749,0.0646,0.0696,
大田 (Ota),2012-11-26,13:01～14:00,0.0693,0.0586,0.0649,
大田 (Ota),2012-11-26,12:01～13:00,0.0635,0.0552,0.0586,
大田 (Ota),2012-11-26,11:01～12:00,0.0578,0.0506,0.0547,
大田 (Ota),2012-11-26,10:01～11:00,0.0561,0.0501,0.0525,
大田 (Ota),2012-11-26,09:01～10:00,0.0558,0.0486,0.0515,
大田 (Ota),2012-11-26,08:01～09:00,0.0558,0.0482,0.0518,
大田 (Ota),2012-11-26,07:01～08:00,0.0559,0.0479,0.0516,
大田 (Ota),2012-11-26,06:01～07:00,0.0546,0.0482,0.0515,
大田 (Ota),2012-11-26,05:01～06:00,0.0545,0.0476,0.0515,
大田 (Ota),2012-11-26,04:01～05:00,0.0559,0.0479,0.0518,
大田 (Ota),2012-11-26,03:01～04:00,0.0573,0.0488,0.0519,
大田 (Ota),2012-11-26,02:01～03:00,0.0543,0.0484,0.0515,
大田 (Ota),2012-11-26,01:01～02:00,0.0565,0.0485,0.0522,
大田 (Ota),2012-11-26,00:01～01:00,0.0541,0.0473,0.0513,
